When you browse on this site, cookies collect data to enhance your experience and personalize the content and advertising you see.
Visit our Privacy Policy to learn more. By continuing to use the site, you agree to this use of cookies and data.

Hourly Weather Adelaide

Today, 15 August, Saturday

Time Temperature Precipitation Wind Pressure Humidity
00:00 +10°C° 0.2 mm 2 mps 755 mmHg 94%
01:00 +10°C° 0.1 mm 2 mps 755 mmHg 95%
02:00 +10°C° 0.1 mm 2 mps 756 mmHg 95%
03:00 +10°C° 0 mm 2 mps 756 mmHg 95%
04:00 +10°C° 0.1 mm 2 mps 756 mmHg 95%
05:00 +10°C° 0.1 mm 2 mps 757 mmHg 95%
06:00 +10°C° 0.1 mm 2 mps 757 mmHg 94%
07:00 +12°C° 0.1 mm 2 mps 757 mmHg 91%
08:00 +13°C° 0.1 mm 2 mps 757 mmHg 88%
09:00 +13°C° 0 mm 3 mps 758 mmHg 83%
10:00 +13°C° 0.1 mm 3 mps 758 mmHg 79%
11:00 +14°C° 0.1 mm 3 mps 758 mmHg 75%
12:00 +14°C° 0.1 mm 4 mps 757 mmHg 71%
13:00 +14°C° 0.1 mm 4 mps 757 mmHg 71%
14:00 +14°C° 0.1 mm 4 mps 757 mmHg 70%
15:00 +14°C° 0 mm 3 mps 757 mmHg 68%
16:00 +13°C° 0 mm 3 mps 758 mmHg 74%
17:00 +12°C° 0 mm 3 mps 758 mmHg 80%
18:00 +11°C° 0 mm 3 mps 758 mmHg 86%
19:00 +10°C° 0 mm 2 mps 759 mmHg 87%
20:00 +10°C° 0 mm 2 mps 759 mmHg 89%
21:00 +10°C° 0 mm 2 mps 760 mmHg 91%
22:00 +10°C° 0 mm 2 mps 760 mmHg 91%
23:00 +10°C° 0 mm 2 mps 759 mmHg 92%

Tomorrow, 16 August, Sunday

Time Temperature Precipitation Wind Pressure Humidity
00:00 +9°C° 0 mm 2 mps 759 mmHg 92%
01:00 +9°C° 0 mm 2 mps 759 mmHg 92%
02:00 +9°C° 0 mm 2 mps 759 mmHg 93%
03:00 +9°C° 0 mm 2 mps 759 mmHg 93%
04:00 +9°C° 0 mm 2 mps 759 mmHg 93%
05:00 +9°C° 0 mm 2 mps 759 mmHg 94%
06:00 +9°C° 0 mm 2 mps 759 mmHg 94%
07:00 +10°C° 0.1 mm 2 mps 760 mmHg 90%
08:00 +12°C° 0.1 mm 1 mps 760 mmHg 87%
09:00 +13°C° 0.1 mm 1 mps 760 mmHg 83%
10:00 +13°C° 0 mm 2 mps 759 mmHg 77%
11:00 +14°C° 0 mm 2 mps 759 mmHg 71%
12:00 +15°C° 0 mm 2 mps 758 mmHg 65%
13:00 +14°C° 0 mm 2 mps 758 mmHg 65%
14:00 +14°C° 0 mm 2 mps 757 mmHg 65%
15:00 +14°C° 0 mm 2 mps 757 mmHg 64%
16:00 +13°C° 0 mm 1 mps 757 mmHg 68%
17:00 +12°C° 0 mm 1 mps 757 mmHg 71%
18:00 +10°C° 0 mm 0 mps 757 mmHg 74%
19:00 +11°C° 0 mm 1 mps 757 mmHg 74%
20:00 +11°C° 0 mm 1 mps 757 mmHg 74%
21:00 +10°C° 0 mm 2 mps 757 mmHg 74%
22:00 +10°C° 0 mm 2 mps 757 mmHg 77%
23:00 +9°C° 0 mm 3 mps 756 mmHg 79%

Day after tomorrow, 17 August, Monday

Time Temperature Precipitation Wind Pressure Humidity
00:00 +9°C° 0 mm 3 mps 756 mmHg 81%
01:00 +8°C° 0 mm 4 mps 755 mmHg 77%
02:00 +8°C° 0 mm 4 mps 754 mmHg 72%
03:00 +8°C° 0 mm 4 mps 754 mmHg 67%
04:00 +9°C° 0 mm 5 mps 753 mmHg 68%
05:00 +9°C° 0 mm 5 mps 753 mmHg 68%
06:00 +9°C° 0 mm 5 mps 753 mmHg 68%
07:00 +11°C° 0 mm 6 mps 752 mmHg 64%
08:00 +13°C° 0 mm 6 mps 752 mmHg 60%
09:00 +14°C° 0 mm 7 mps 752 mmHg 56%
10:00 +14°C° 0.5 mm 6 mps 751 mmHg 62%
11:00 +13°C° 0.5 mm 6 mps 751 mmHg 69%
12:00 +13°C° 0.5 mm 5 mps 750 mmHg 76%
13:00 +13°C° 0.3 mm 5 mps 750 mmHg 77%
14:00 +13°C° 0.3 mm 5 mps 749 mmHg 78%
15:00 +13°C° 0.3 mm 4 mps 749 mmHg 78%
16:00 +13°C° 0 mm 4 mps 749 mmHg 81%
17:00 +12°C° 0 mm 4 mps 749 mmHg 84%
18:00 +12°C° 0 mm 3 mps 749 mmHg 87%
19:00 +12°C° 0 mm 4 mps 749 mmHg 86%
20:00 +12°C° 0 mm 5 mps 749 mmHg 86%
21:00 +12°C° 0 mm 5 mps 750 mmHg 86%
22:00 +10°C° 0.1 mm 6 mps 749 mmHg 86%
23:00 +10°C° 0.1 mm 6 mps 749 mmHg 86%

18 August, Tuesday

Time Temperature Precipitation Wind Pressure Humidity
00:00 +10°C° 0.1 mm 7 mps 749 mmHg 86%
01:00 +10°C° 0.2 mm 6 mps 749 mmHg 87%
02:00 +10°C° 0.2 mm 6 mps 749 mmHg 87%
03:00 +10°C° 0.2 mm 6 mps 748 mmHg 87%
04:00 +9°C° 0.2 mm 6 mps 748 mmHg 87%
05:00 +9°C° 0.2 mm 6 mps 748 mmHg 87%
06:00 +9°C° 0.2 mm 6 mps 748 mmHg 88%
07:00 +9°C° 0.5 mm 7 mps 748 mmHg 87%
08:00 +10°C° 0.5 mm 7 mps 748 mmHg 87%
09:00 +10°C° 0.5 mm 7 mps 748 mmHg 86%
10:00 +10°C° 0.7 mm 7 mps 748 mmHg 86%
11:00 +10°C° 0.7 mm 8 mps 748 mmHg 86%
12:00 +10°C° 0.7 mm 9 mps 747 mmHg 86%
13:00 +10°C° 0.5 mm 8 mps 747 mmHg 86%
14:00 +10°C° 0.5 mm 8 mps 747 mmHg 85%
15:00 +11°C° 0.5 mm 7 mps 747 mmHg 85%
16:00 +10°C° 0.4 mm 7 mps 747 mmHg 86%
17:00 +10°C° 0.4 mm 6 mps 747 mmHg 87%
18:00 +10°C° 0.4 mm 6 mps 747 mmHg 88%
19:00 +10°C° 0.7 mm 6 mps 747 mmHg 89%
20:00 +10°C° 0.7 mm 6 mps 747 mmHg 90%
21:00 +10°C° 0.7 mm 6 mps 747 mmHg 91%
22:00 +10°C° 0.7 mm 7 mps 746 mmHg 90%
23:00 +10°C° 0.7 mm 7 mps 745 mmHg 89%

19 August, Wednesday

Time Temperature Precipitation Wind Pressure Humidity
00:00 +10°C° 0.7 mm 8 mps 744 mmHg 89%
01:00 +10°C° 1.1 mm 8 mps 744 mmHg 87%
02:00 +10°C° 1.1 mm 9 mps 743 mmHg 86%
03:00 +10°C° 1.1 mm 9 mps 742 mmHg 85%
04:00 +10°C° 1 mm 8 mps 743 mmHg 85%
05:00 +9°C° 1 mm 8 mps 743 mmHg 85%
06:00 +9°C° 1 mm 7 mps 743 mmHg 85%
07:00 +9°C° 0.3 mm 8 mps 744 mmHg 83%
08:00 +10°C° 0.3 mm 8 mps 745 mmHg 81%
09:00 +10°C° 0.3 mm 9 mps 746 mmHg 79%
10:00 +11°C° 0.1 mm 8 mps 747 mmHg 74%
11:00 +11°C° 0.1 mm 8 mps 748 mmHg 70%
12:00 +12°C° 0.1 mm 8 mps 748 mmHg 65%
13:00 +12°C° 0.1 mm 7 mps 748 mmHg 68%
14:00 +12°C° 0.1 mm 7 mps 749 mmHg 71%
15:00 +13°C° 0.1 mm 6 mps 749 mmHg 74%
16:00 +11°C° 0.2 mm 6 mps 749 mmHg 78%
17:00 +10°C° 0.2 mm 5 mps 750 mmHg 83%
18:00 +10°C° 0.2 mm 5 mps 751 mmHg 87%
19:00 +9°C° 0.1 mm 5 mps 751 mmHg 86%
20:00 +9°C° 0.1 mm 5 mps 752 mmHg 86%
21:00 +9°C° 0.1 mm 5 mps 753 mmHg 85%
22:00 +9°C° 0.2 mm 5 mps 753 mmHg 86%
23:00 +9°C° 0.2 mm 5 mps 753 mmHg 86%

20 August, Thursday

Time Temperature Precipitation Wind Pressure Humidity
00:00 +9°C° 0.2 mm 5 mps 754 mmHg 87%
01:00 +8°C° 0.1 mm 5 mps 754 mmHg 85%
02:00 +8°C° 0.1 mm 6 mps 754 mmHg 83%
03:00 +8°C° 0.1 mm 6 mps 754 mmHg 81%
04:00 +8°C° 0 mm 5 mps 754 mmHg 83%
05:00 +8°C° 0 mm 5 mps 755 mmHg 84%
06:00 +8°C° 0 mm 4 mps 755 mmHg 85%
07:00 +9°C° 0.1 mm 5 mps 756 mmHg 82%
08:00 +9°C° 0.1 mm 5 mps 756 mmHg 79%
09:00 +10°C° 0.1 mm 5 mps 757 mmHg 75%
10:00 +10°C° 0.1 mm 5 mps 757 mmHg 72%
11:00 +12°C° 0.1 mm 5 mps 756 mmHg 69%
12:00 +11°C° 0.1 mm 6 mps 756 mmHg 66%
13:00 +11°C° 0.1 mm 6 mps 756 mmHg 66%
14:00 +11°C° 0.1 mm 6 mps 756 mmHg 66%
15:00 +11°C° 0.1 mm 6 mps 756 mmHg 66%
16:00 +10°C° 0.1 mm 6 mps 756 mmHg 70%
17:00 +10°C° 0.1 mm 6 mps 756 mmHg 73%
18:00 +9°C° 0.1 mm 6 mps 756 mmHg 77%
19:00 +9°C° 0.1 mm 6 mps 757 mmHg 78%
20:00 +9°C° 0.1 mm 6 mps 757 mmHg 80%
21:00 +8°C° 0.1 mm 6 mps 757 mmHg 81%
22:00 +8°C° 0.1 mm 6 mps 756 mmHg 81%
23:00 +8°C° 0.1 mm 6 mps 756 mmHg 80%
Show more